Regional Weather Roundup
Issued by NWS

Home | Current Version | Previous Version | Graphics & Text | Print | Product List | Glossary On
Versions: 1 2 3 4 5 6 7 8 9 10 11 12 13 14 15 16 17 18 19 20 21 22 23 24 25 26 27 28 29 30 31 32 33 34 35 36 37 38 39 40 41 42 43 44 45 46 47 48 49 50
478
ASUS43 KBIS 160410
RWRND

NORTH DAKOTA REGIONAL WEATHER ROUNDUP
NATIONAL WEATHER SERVICE BISMARCK ND
1000 PM CST FRI DEC 15 2017

NOTE: "FAIR" INDICATES FEW OR NO CLOUDS BELOW 12,000 FEET WITH NO
SIGNIFICANT WEATHER AND/OR OBSTRUCTIONS TO VISIBILITY.


NDZ001>003-009>011-017-160500-
NORTHWEST NORTH DAKOTA

CITY           SKY/WX    TMP DP  RH WIND       PRES   REMARKS
WILLISTON      LGT RAIN  41  34  75 W10       29.62R
MINOT          CLOUDY    41  33  73 W8        29.54R
MINOT AFB      LGT RAIN  38  32  79 W8        29.53R
$$

NDZ018>021-031>035-040>046-160500-
SOUTHWEST NORTH DAKOTA

CITY           SKY/WX    TMP DP  RH WIND       PRES   REMARKS
BISMARCK       CLOUDY    41  30  65 W7        29.58R
DICKINSON      CLOUDY    31  22  69 W9        29.58S
GARRISON         N/A     39  33  79 W12       29.55R
HETTINGER ARPT CLOUDY    32  19  58 NW8       29.63R
$$

NDZ004>008-012>016-024-026-027-054-160500-
NORTHEAST NORTH DAKOTA

CITY           SKY/WX    TMP DP  RH WIND       PRES   REMARKS
GRAND FORKS    LGT SNOW  22  20  92 E13       29.61F FOG     WCI  10
GRND FRKS AFB  LGT SNOW  21  19  93 E10       29.61S FOG     WCI  10
DEVILS LAKE    CLOUDY    26  24  92 E9        29.53S WCI  17
$$

NDZ022-023-025-028>030-036>039-047>053-160500-
SOUTHEAST NORTH DAKOTA

CITY           SKY/WX    TMP DP  RH WIND       PRES   REMARKS
FARGO          CLOUDY    30  28  92 SE13      29.58F WCI  20
JAMESTOWN      CLOUDY    32  30  92 SW5       29.51S
$$





USA.gov is the U.S. government's official web portal to all federal, state and local government web resources and services.